Home > Weather > Luton > Past weeks

Flag for United Kingdom Past Weather in Luton, England, United Kingdom — Yesterday and Last 2 Weeks

Now
50 °F

Mostly cloudy.


Feels Like: 47 °F
Forecast: 41 / 65 °F
Wind: 8 mph from North

Location: Luton Airport

Current Time: May 25, 2016 at 2:13:30 PM

Latest Report: May 25, 2016 at 1:20 PM


Visibility: N/A

Pressure: 30.04 "Hg

Humidity: 94%

Dew Point: 48 °F

Location of LutonLocation

Past Weather in Luton — Graph

°F

Luton Temperature Yesterday

Maximum temperature yesterday: 59 °F (at 1:50 PM)
Minimum temperature yesterday: 43 °F (at 2:20 AM)
Average temperature yesterday: 51 °F

High & Low Weather Summary for the Past Weeks

 TemperatureHumidityPressure
High73 °F (May 12, 3:20 PM)100% (May 10, 2:20 PM)30.21 "Hg (May 10, 2:20 PM)
Low37 °F (May 15, 1:50 AM)39% (May 15, 1:50 PM)29.59 "Hg (May 12, 2:20 AM)
Average54 °F81%29.90 "Hg
* Reported May 10 1:20 PM — May 25 1:20 PM, Luton, Weather by CustomWeather, © 2016

Note: Actual official high and low records may vary slightly from our data, if they occured in-between our weather recording intervals... More about our weather records

Advertising

Luton Weather History for the Previous 24 Hours

Scroll right to see more
 ConditionsComfort  
Time TempWeatherWind HumidityBarometerVisibility
1:20 PM
Wed, May 25
50 °FMostly cloudy.8 mph94%30.04 "HgN/A
12:50 PM48 °FLow clouds.8 mph100%30.04 "HgN/A
12:20 PM48 °FLow clouds.8 mph100%30.04 "Hg6 mi
11:50 AM48 °FLow clouds.8 mph100%30.04 "Hg5 mi
11:20 AM48 °FLight rain. Low clouds.8 mph94%30.04 "Hg5 mi
10:50 AM46 °FFog.7 mph100%30.07 "Hg3 mi
10:20 AM46 °FFog.7 mph100%30.07 "Hg3 mi
9:50 AM46 °FFog.7 mph100%30.07 "Hg3 mi
9:20 AM46 °FDrizzle. Low clouds.9 mph93%30.07 "Hg2 mi
8:50 AM46 °FDrizzle. Low clouds.9 mph93%30.07 "Hg3 mi
8:20 AM45 °FLow clouds.8 mph100%30.07 "Hg6 mi
7:50 AM45 °FLow clouds.8 mph100%30.07 "HgN/A
7:20 AM45 °FLow clouds.9 mph93%30.07 "HgN/A
6:50 AM45 °FMostly cloudy.9 mph93%30.07 "HgN/A
6:20 AM45 °FLow clouds.10 mph93%30.07 "HgN/A
5:50 AM45 °FMostly cloudy.8 mph93%30.07 "HgN/A
5:20 AM45 °FMostly cloudy.8 mph87%30.07 "HgN/A
4:50 AM45 °FMostly cloudy.7 mph87%30.07 "HgN/A
4:20 AM45 °FMostly cloudy.7 mph87%30.07 "HgN/A
3:50 AM45 °FMostly cloudy.7 mph87%30.09 "HgN/A
3:20 AM45 °FOvercast.6 mph87%30.09 "HgN/A
2:50 AM46 °FOvercast.6 mph82%30.09 "HgN/A
2:20 AM46 °FOvercast.9 mph82%30.09 "HgN/A
1:50 AM46 °FOvercast.6 mph82%30.09 "HgN/A
1:20 AM46 °FOvercast.6 mph82%30.12 "HgN/A
12:50 AM45 °FOvercast.6 mph93%30.12 "HgN/A
12:20 AM45 °FOvercast.6 mph93%30.12 "HgN/A
11:50 PM
Tue, May 24
45 °FOvercast.6 mph93%30.12 "HgN/A
11:20 PM45 °FPassing clouds.6 mph87%30.12 "HgN/A
10:50 PM45 °FPassing clouds.7 mph87%30.12 "HgN/A
10:20 PM45 °FQuite cool.6 mph87%30.12 "HgN/A
9:50 PM46 °FCool.8 mph82%30.12 "HgN/A
9:20 PM46 °FCool.10 mph82%30.12 "HgN/A
8:50 PM48 °FCool.14 mph76%30.12 "HgN/A
8:20 PM50 °FCool.15 mph76%30.12 "HgN/A
7:50 PM52 °FCool.16 mph67%30.12 "HgN/A
7:20 PM54 °FPassing clouds.14 mph67%30.12 "HgN/A
6:50 PM55 °FPassing clouds.17 mph63%30.12 "HgN/A
6:20 PM55 °FPassing clouds.17 mph63%30.12 "HgN/A
5:50 PM55 °FPartly sunny.15 mph63%30.12 "HgN/A
5:20 PM57 °FScattered clouds.18 mph59%30.12 "HgN/A
4:50 PM59 °FScattered clouds.16 mph59%30.12 "HgN/A
4:20 PM59 °FPartly sunny.16 mph59%30.12 "HgN/A
3:50 PM59 °FPartly sunny.16 mph55%30.12 "HgN/A
3:20 PM59 °FBroken clouds.15 mph59%30.15 "HgN/A
2:50 PM57 °FPartly sunny.14 mph63%30.15 "HgN/A
2:20 PM57 °FOvercast.16 mph63%30.15 "HgN/A
Weather by CustomWeather, © 2016

See weather overviewHow to use our weather pages